Bellaire, MI

2:14 AM EDT on May 24, 2017 (GMT -0400)
Antrim County

Weather History for KACB - October, 2012

Change the Weather History Date:

Thursday, October 11, 2012

  Actual Average (KCVX) Record (KCVX)
Temperature  
Mean Temperature 41 °F -  
Max Temperature 48 °F 57 °F 77 °F (2003)
Min Temperature 34 °F 42 °F 33 °F (2004)
Degree Days  
Heating Degree Days 24    
Moisture  
Dew Point 34 °F    
Average Humidity 72    
Maximum Humidity 91    
Minimum Humidity 45    
Precipitation  
Precipitation 0.00 in - - ()
Sea Level Pressure  
Sea Level Pressure 30.01 in    
Wind  
Wind Speed 6 mph (WSW)    
Max Wind Speed 14 mph    
Max Gust Speed 24 mph    
Visibility 9 miles    
Events Rain    
Averages and records for this station are not official NWS values.
T = Trace of Precipitation, MM = Missing Value Source: NWS Daily Summary

Daily Weather History Graph

Daily Weather History Graph

Search for Another Location

Airport or City:

Trip Planner

Search our weather history database for the weather conditions in past years. The results will help you decide how hot, cold, wet, or windy it might be!

Date:

Astronomy

Oct. 11, 2012 Rise Set
Actual Time 7:51 AM EDT 7:02 PM EDT
Civil Twilight 7:22 AM EDT 7:31 PM EDT
Nautical Twilight 6:48 AM EDT 8:05 PM EDT
Astronomical Twilight 6:14 AM EDT 8:39 PM EDT
Moon 3:19 AM EDT (10/11) 4:46 PM EDT (10/11)
Length of Visible Light 12h 08m
Length of Day
11h 10m
Waning Crescent, 18% of the Moon is Illuminated
Oct 11
Waning Crescent
Oct 15
New
Oct 21
First Quarter
Oct 29
Full
Nov 6
Last Quarter

Hourly Weather History & Observations

Time (EDT) Temp. Windchill Dew Point Humidity Pressure Visibility Wind Dir Wind Speed Gust Speed Precip Events Conditions
12:12 AM 42.3 °F 40.5 °F 28.4 °F 58% 30.06 in 10.0 mi West 3.5 mph - N/A   Overcast
12:33 AM 40.5 °F 38.4 °F 30.4 °F 67% 30.06 in 10.0 mi West 3.5 mph - N/A   Overcast
12:53 AM 40.3 °F - 31.8 °F 72% 30.06 in 10.0 mi Calm Calm - N/A   Overcast
1:12 AM 37.6 °F - 33.4 °F 85% 30.06 in 10.0 mi Calm Calm - N/A   Overcast
1:33 AM 37.2 °F 34.7 °F 32.9 °F 84% 30.05 in 10.0 mi WNW 3.5 mph - N/A   Overcast
1:52 AM 36.5 °F 31.8 °F 33.1 °F 87% 30.05 in 10.0 mi ENE 5.8 mph - N/A   Overcast
2:13 AM 34.5 °F 28.6 °F 32.0 °F 90% 30.05 in 10.0 mi East 6.9 mph - N/A   Mostly Cloudy
2:33 AM 35.4 °F 31.5 °F 32.9 °F 91% 30.05 in 10.0 mi South 4.6 mph - N/A   Scattered Clouds
2:52 AM 38.1 °F 34.6 °F 30.7 °F 75% 30.04 in 10.0 mi South 4.6 mph - N/A   Clear
3:13 AM 38.1 °F 33.7 °F 28.8 °F 69% 30.03 in 10.0 mi SSW 5.8 mph - N/A   Clear
3:52 AM 37.6 °F 33.1 °F 28.4 °F 69% 30.01 in 10.0 mi South 5.8 mph - N/A   Clear
4:13 AM 37.0 °F 33.3 °F 28.6 °F 71% 30.01 in 10.0 mi South 4.6 mph - N/A   Clear
4:33 AM 37.6 °F 32.3 °F 28.9 °F 71% 30.02 in 10.0 mi South 6.9 mph - N/A   Mostly Cloudy
4:52 AM 38.1 °F 32.9 °F 29.1 °F 70% 30.02 in 10.0 mi South 6.9 mph - N/A   Overcast
5:13 AM 38.1 °F 35.7 °F 29.8 °F 72% 30.03 in 10.0 mi SSW 3.5 mph - N/A Rain Light Rain
5:33 AM 38.3 °F 34.8 °F 31.8 °F 77% 30.03 in 10.0 mi East 4.6 mph - N/A Rain Light Rain
5:52 AM 37.8 °F 31.8 °F 32.5 °F 81% 30.03 in 10.0 mi East 8.1 mph - N/A Rain Light Rain
6:13 AM 39.2 °F 34.2 °F 32.9 °F 78% 30.01 in 10.0 mi SSE 6.9 mph - N/A Rain Light Rain
6:32 AM 39.4 °F 35.2 °F 34.2 °F 82% 30.01 in 10.0 mi ESE 5.8 mph - N/A Rain Light Rain
6:53 AM 39.7 °F 35.6 °F 35.6 °F 85% 29.99 in 10.0 mi SSE 5.8 mph - N/A Rain Rain
7:13 AM 40.1 °F 36.1 °F 36.0 °F 85% 29.99 in 10.0 mi SSE 5.8 mph - N/A Rain Rain
7:32 AM 40.1 °F 35.3 °F 36.1 °F 86% 29.97 in 10.0 mi SSE 6.9 mph - N/A   Drizzle
7:53 AM 40.3 °F 36.3 °F 36.5 °F 86% 29.96 in 10.0 mi SSE 5.8 mph - N/A Rain Light Rain
8:13 AM 40.6 °F 36.7 °F 36.7 °F 86% 29.95 in 5.0 mi South 5.8 mph - N/A Rain Light Rain
8:32 AM 41.4 °F 37.6 °F 37.6 °F 86% 29.94 in 5.0 mi SSW 5.8 mph - N/A Rain Rain
8:53 AM 41.0 °F 36.4 °F 37.4 °F 87% 29.93 in 5.0 mi SSE 6.9 mph - N/A Rain Rain
9:13 AM 41.2 °F 39.2 °F 37.6 °F 87% 29.92 in 7.0 mi WSW 3.5 mph - N/A Rain Light Rain
9:32 AM 41.9 °F 38.2 °F 38.3 °F 87% 29.91 in 10.0 mi SSW 5.8 mph - N/A Rain Light Rain
9:53 AM 43.7 °F 39.1 °F 39.0 °F 84% 29.89 in 7.0 mi South 8.1 mph 19.6 mph N/A Rain Light Rain
10:12 AM 43.7 °F 39.1 °F 39.6 °F 85% 29.88 in 10.0 mi South 8.1 mph - N/A Rain Light Rain
10:33 AM 43.9 °F 41.3 °F 40.3 °F 87% 29.88 in 10.0 mi SW 4.6 mph - N/A Rain Light Rain
10:52 AM 44.2 °F 42.7 °F 41.2 °F 89% 29.88 in 7.0 mi SW 3.5 mph - N/A Rain Rain
11:13 AM 46.4 °F 42.4 °F 42.4 °F 86% 29.88 in 10.0 mi SW 8.1 mph - N/A Rain Light Rain
11:33 AM 46.9 °F - 42.8 °F 86% 29.88 in 7.0 mi WSW 5.8 mph - N/A Rain Rain
11:52 AM 47.3 °F - 43.9 °F 88% 29.89 in 5.0 mi WSW 5.8 mph - N/A Rain Rain
12:13 PM 47.3 °F - 43.7 °F 87% 29.89 in 5.0 mi West 4.6 mph - N/A Rain Rain
12:33 PM 46.8 °F - 42.3 °F 84% 29.90 in 5.0 mi WSW 5.8 mph - N/A Rain Rain
12:53 PM 46.4 °F 44.3 °F 42.1 °F 85% 29.91 in 10.0 mi SW 4.6 mph - N/A Rain Rain
1:13 PM 46.6 °F - 42.3 °F 85% 29.91 in 10.0 mi WSW 5.8 mph - N/A   Light Drizzle
2:13 PM 47.3 °F - 40.1 °F 76% 29.93 in 10.0 mi WNW 9.2 mph 16.1 mph N/A   Overcast
2:33 PM 47.5 °F - 39.9 °F 75% 29.94 in 10.0 mi WNW 11.5 mph 17.3 mph N/A   Overcast
2:53 PM 47.3 °F - 38.8 °F 72% 29.95 in 10.0 mi WNW 9.2 mph 16.1 mph N/A   Overcast
3:13 PM 47.5 °F - 38.3 °F 70% 29.95 in 10.0 mi WNW 9.2 mph 16.1 mph N/A   Overcast
3:33 PM 47.7 °F - 38.3 °F 70% 29.96 in 10.0 mi WNW 8.1 mph - N/A   Overcast
3:53 PM 47.5 °F - 37.9 °F 69% 29.98 in 10.0 mi WNW 6.9 mph - N/A   Overcast
4:13 PM 47.7 °F - 37.4 °F 68% 29.98 in 10.0 mi WNW 11.5 mph 17.3 mph N/A   Overcast
4:33 PM 48.2 °F - 35.4 °F 61% 29.99 in 10.0 mi WNW 10.4 mph 16.1 mph N/A   Mostly Cloudy
4:53 PM 47.7 °F - 35.1 °F 62% 30.01 in 10.0 mi WNW 9.2 mph 18.4 mph N/A   Mostly Cloudy
5:12 PM 47.3 °F - 34.2 °F 60% 30.02 in 10.0 mi WNW 11.5 mph 19.6 mph N/A   Overcast
5:33 PM 46.9 °F - 34.7 °F 62% 30.03 in 10.0 mi NW 6.9 mph 16.1 mph N/A   Overcast
6:13 PM 46.8 °F - 32.7 °F 58% 30.04 in 10.0 mi NW 8.1 mph 18.4 mph N/A   Overcast
6:33 PM 46.4 °F 42.4 °F 32.4 °F 58% 30.05 in 10.0 mi WNW 8.1 mph - N/A   Mostly Cloudy
6:53 PM 46.8 °F - 32.0 °F 57% 30.05 in 10.0 mi WNW 9.2 mph 18.4 mph N/A   Mostly Cloudy
7:13 PM 46.8 °F - 32.0 °F 57% 30.06 in 10.0 mi WNW 10.4 mph 16.1 mph N/A   Mostly Cloudy
7:33 PM 46.9 °F - 29.8 °F 51% 30.06 in 10.0 mi WNW 10.4 mph 19.6 mph N/A   Scattered Clouds
7:53 PM 46.8 °F - 28.9 °F 50% 30.07 in 10.0 mi NW 12.7 mph 20.7 mph N/A   Scattered Clouds
8:13 PM 46.6 °F - 28.9 °F 50% 30.08 in 10.0 mi NW 5.8 mph 18.4 mph N/A   Mostly Cloudy
8:33 PM 46.4 °F 41.1 °F 26.8 °F 46% 30.08 in 10.0 mi WNW 11.5 mph 17.3 mph N/A   Scattered Clouds
8:54 PM 46.4 °F 40.7 °F 26.2 °F 45% 30.10 in 10.0 mi NW 12.7 mph 24.2 mph N/A   Clear
9:13 PM 46.4 °F 40.4 °F 26.2 °F 45% 30.11 in 10.0 mi NW 13.8 mph 18.4 mph N/A   Scattered Clouds
9:33 PM 46.4 °F 41.5 °F 27.5 °F 48% 30.12 in 10.0 mi NW 10.4 mph 18.4 mph N/A   Mostly Cloudy
9:53 PM 45.7 °F 42.0 °F 26.6 °F 47% 30.13 in 10.0 mi NW 6.9 mph 20.7 mph N/A   Overcast
10:13 PM 45.3 °F 41.6 °F 31.5 °F 58% 30.14 in 10.0 mi NNW 6.9 mph 17.3 mph N/A   Overcast
10:33 PM 43.7 °F 41.1 °F 32.9 °F 66% 30.15 in 10.0 mi NW 4.6 mph - N/A   Mostly Cloudy
10:53 PM 43.9 °F 40.5 °F 30.7 °F 60% 30.16 in 10.0 mi NW 5.8 mph - N/A   Mostly Cloudy
11:33 PM 41.9 °F 35.4 °F 32.0 °F 68% 30.17 in 10.0 mi NNW 11.5 mph 19.6 mph N/A   Mostly Cloudy
11:53 PM 41.2 °F 38.2 °F 32.2 °F 70% 30.18 in 10.0 mi NNW 4.6 mph - N/A   Scattered Clouds